Morgantown, WV

11:13 PM EDT on October 20, 2017 (GMT -0400)
Morgantown Municipal-Hart

Weather History for KMGW - January, 2010

Change the Weather History Date:

Monday, January 4, 2010

  Actual Average Record
Temperature  
Mean Temperature 19 °F 31 °F  
Max Temperature 22 °F 39 °F 71 °F (1950)
Min Temperature 16 °F 24 °F -2 °F (1981)
Degree Days  
Heating Degree Days 46 34  
Month to date heating degree days 179 133  
Since 1 July heating degree days 1939 2117  
Cooling Degree Days 0 0  
Month to date cooling degree days 0 0  
Year to date cooling degree days 0 0  
Moisture  
Dew Point 12 °F    
Average Humidity 76    
Maximum Humidity 84    
Minimum Humidity 67    
Precipitation  
Precipitation 0.02 in 0.09 in 1.13 in (1971)
Month to date precipitation 0.04 0.36  
Year to date precipitation 0.04 0.36  
Snow  
Snow 0.00 in - - ()
Snow Depth 0.00 in    
Sea Level Pressure  
Sea Level Pressure 30.01 in    
Wind  
Wind Speed 8 mph (SW)    
Max Wind Speed 14 mph    
Max Gust Speed 17 mph    
Visibility 3 miles    
Events Snow    
T = Trace of Precipitation, MM = Missing Value Source: NWS Daily Summary

Daily Weather History Graph

Daily Weather History Graph

Search for Another Location

Airport or City:

Trip Planner

Search our weather history database for the weather conditions in past years. The results will help you decide how hot, cold, wet, or windy it might be!

Date:

Astronomy

Jan. 04, 2010 Rise Set
Actual Time 7:40 AM EST 5:08 PM EST
Civil Twilight 7:10 AM EST 5:38 PM EST
Nautical Twilight 6:36 AM EST 6:12 PM EST
Astronomical Twilight 6:04 AM EST 6:45 PM EST
Moon 10:12 PM EST (1/4) 10:11 AM EST (1/4)
Length of Visible Light 10h 28m
Length of Day
9h 28m
Waning Gibbous, 79% of the Moon is Illuminated
Jan 4
Waning Gibbous
Jan 7
Last Quarter
Jan 15
New
Jan 23
First Quarter
Jan 30
Full

Hourly Weather History & Observations

Time (EST) Temp. Windchill Dew Point Humidity Pressure Visibility Wind Dir Wind Speed Gust Speed Precip Events Conditions
12:00 AM 15.8 °F 8.6 °F 8.6 °F 73% 30.03 in 2.5 mi SW 4.6 mph - N/A   Haze
12:14 AM 15.8 °F 10.2 °F 8.6 °F 73% 30.03 in 3.0 mi Variable 3.5 mph - N/A   Haze
12:32 AM 17.6 °F 9.3 °F 8.6 °F 68% 30.02 in 4.0 mi SW 5.8 mph - N/A   Haze
12:53 AM 17.1 °F 7.6 °F 9.0 °F 71% 30.09 in 5.0 mi Variable 6.9 mph - N/A   Haze
1:32 AM 17.6 °F 8.2 °F 8.6 °F 68% 30.02 in 6.0 mi Variable 6.9 mph - N/A   Haze
1:39 AM 17.6 °F 7.3 °F 8.6 °F 68% 30.02 in 5.0 mi SW 8.1 mph - N/A   Haze
1:53 AM 17.1 °F 5.8 °F 9.0 °F 71% 30.08 in 4.0 mi SW 9.2 mph - N/A   Haze
2:24 AM 17.6 °F 5.7 °F 10.4 °F 73% 30.01 in 3.0 mi SW 10.4 mph - N/A   Haze
2:53 AM 17.1 °F 6.6 °F 10.0 °F 74% 30.08 in 3.0 mi SW 8.1 mph - N/A   Haze
3:40 AM 17.6 °F 8.2 °F 10.4 °F 73% 30.01 in 2.5 mi Variable 6.9 mph - N/A   Haze
3:53 AM 17.1 °F 6.6 °F 10.0 °F 74% 30.07 in 2.5 mi SW 8.1 mph - N/A   Haze
4:23 AM 15.8 °F 4.2 °F 10.4 °F 79% 30.00 in 3.0 mi SW 9.2 mph - N/A   Haze
4:44 AM 17.6 °F 7.3 °F 10.4 °F 73% 30.00 in 2.5 mi SW 8.1 mph - 0.00 in Snow Light Snow
4:53 AM 17.1 °F 8.7 °F 10.0 °F 74% 30.06 in 2.0 mi SW 5.8 mph - 0.00 in Snow Light Snow
5:00 AM 17.6 °F 9.3 °F 10.4 °F 73% 30.00 in 1.5 mi SW 5.8 mph - 0.00 in Snow Light Snow
5:11 AM 15.8 °F 5.1 °F 10.4 °F 79% 30.00 in 1.2 mi SW 8.1 mph - 0.00 in Snow Light Snow
5:26 AM 15.8 °F 4.2 °F 10.4 °F 79% 29.99 in 1.0 mi SW 9.2 mph - 0.00 in Snow Light Snow
5:53 AM 16.0 °F 7.4 °F 10.9 °F 81% 30.06 in 1.0 mi SW 5.8 mph - 0.01 in Snow Light Snow
6:00 AM 15.8 °F 7.2 °F 10.4 °F 79% 30.00 in 1.0 mi Variable 5.8 mph - 0.00 in Snow Light Snow
6:12 AM 15.8 °F 5.1 °F 10.4 °F 79% 30.00 in 1.5 mi SW 8.1 mph - 0.00 in Snow Light Snow
6:25 AM 15.8 °F 5.1 °F 10.4 °F 79% 30.00 in 2.0 mi SW 8.1 mph - 0.00 in   Haze
6:53 AM 16.0 °F 5.3 °F 10.0 °F 77% 30.06 in 3.0 mi SW 8.1 mph - 0.00 in Snow Blowing Snow
7:53 AM 16.0 °F 5.3 °F 10.0 °F 77% 30.07 in 4.0 mi SW 8.1 mph - N/A   Haze
8:28 AM 17.6 °F 9.3 °F 10.4 °F 73% 30.01 in 2.5 mi SW 5.8 mph - N/A   Haze
8:40 AM 17.6 °F 9.3 °F 10.4 °F 73% 30.01 in 1.5 mi SW 5.8 mph - 0.00 in Snow Light Snow
8:47 AM 17.6 °F 9.3 °F 10.4 °F 73% 30.01 in 2.0 mi SW 5.8 mph - 0.00 in   Haze
8:53 AM 17.1 °F 6.6 °F 10.9 °F 77% 30.07 in 2.5 mi SSW 8.1 mph - 0.00 in   Haze
9:05 AM 17.6 °F 8.2 °F 10.4 °F 73% 30.01 in 3.0 mi Variable 6.9 mph - N/A   Haze
9:19 AM 17.6 °F 10.7 °F 10.4 °F 73% 30.01 in 2.5 mi SW 4.6 mph - N/A   Haze
9:32 AM 17.6 °F 8.2 °F 10.4 °F 73% 30.01 in 1.5 mi SW 6.9 mph - N/A   Haze
9:41 AM 17.6 °F 8.2 °F 10.4 °F 73% 30.01 in 1.0 mi SW 6.9 mph - 0.00 in Snow Light Snow
9:53 AM 18.0 °F 9.8 °F 10.9 °F 74% 30.07 in 1.2 mi SW 5.8 mph - 0.00 in Snow Light Snow
10:06 AM 17.6 °F 6.4 °F 10.4 °F 73% 30.01 in 1.2 mi SW 9.2 mph - 0.00 in Snow Light Snow
10:35 AM 19.4 °F 10.4 °F 12.2 °F 74% 30.01 in 0.8 mi SW 6.9 mph - 0.00 in Snow Light Snow
10:43 AM 19.4 °F 11.5 °F 12.2 °F 74% 30.00 in 1.2 mi SW 5.8 mph - 0.00 in Snow Light Snow
10:53 AM 19.0 °F 8.2 °F 12.0 °F 74% 30.06 in 1.5 mi SW 9.2 mph - 0.00 in Snow Light Snow
11:21 AM 19.4 °F 10.4 °F 12.2 °F 74% 29.99 in 2.5 mi SW 6.9 mph - 0.00 in   Haze
11:29 AM 19.4 °F 10.4 °F 12.2 °F 74% 29.99 in 4.0 mi WSW 6.9 mph - 0.00 in   Haze
11:53 AM 19.9 °F 9.3 °F 12.0 °F 71% 30.04 in 5.0 mi SW 9.2 mph - 0.00 in   Haze
12:00 PM 21.2 °F 12.6 °F 12.2 °F 68% 29.97 in 5.0 mi Variable 6.9 mph - N/A   Haze
12:37 PM 21.2 °F 13.6 °F 12.2 °F 68% 29.96 in 2.5 mi Variable 5.8 mph - N/A   Haze
12:53 PM 21.9 °F 9.8 °F 12.9 °F 68% 30.01 in 2.5 mi WSW 12.7 mph - N/A   Haze
1:04 PM 21.2 °F 11.7 °F 14.0 °F 74% 29.95 in 1.2 mi SW 8.1 mph - 0.00 in Snow Light Snow
1:16 PM 21.2 °F 13.6 °F 14.0 °F 74% 29.95 in 1.0 mi WSW 5.8 mph - 0.00 in Snow Light Snow
1:34 PM 21.2 °F 13.6 °F 15.8 °F 80% 29.94 in 1.0 mi Variable 5.8 mph - 0.00 in Snow Light Snow
1:53 PM 21.9 °F 13.4 °F 15.1 °F 75% 30.00 in 1.5 mi SW 6.9 mph - 0.00 in Snow Light Snow
2:14 PM 21.2 °F 11.7 °F 15.8 °F 80% 29.94 in 1.5 mi SW 8.1 mph - 0.00 in Snow Light Snow
2:53 PM 21.9 °F 12.5 °F 15.1 °F 75% 30.00 in 1.8 mi WSW 8.1 mph - 0.01 in Snow Light Snow
3:13 PM 21.2 °F 8.3 °F 15.8 °F 80% 29.94 in 2.0 mi WSW 13.8 mph - 0.00 in Snow Light Snow
3:50 PM 21.2 °F 8.3 °F 15.8 °F 80% 29.95 in 1.5 mi WSW 13.8 mph - 0.00 in Snow Light Snow
3:53 PM 21.9 °F 9.2 °F 15.1 °F 75% 30.00 in 1.5 mi WSW 13.8 mph - 0.00 in Snow Light Snow
4:29 PM 21.2 °F 8.9 °F 15.8 °F 80% 29.95 in 3.0 mi WSW 12.7 mph - 0.00 in Snow Light Snow
4:53 PM 21.9 °F 9.8 °F 15.1 °F 75% 30.01 in 10.0 mi WSW 12.7 mph - 0.00 in   Overcast
5:29 PM 21.2 °F 13.6 °F 15.8 °F 80% 29.95 in 2.5 mi Variable 5.8 mph - 0.00 in Snow Light Snow
5:39 PM 21.2 °F 12.6 °F 15.8 °F 80% 29.95 in 4.0 mi WSW 6.9 mph - 0.00 in Snow Light Snow
5:53 PM 21.9 °F 13.4 °F 15.1 °F 75% 30.01 in 6.0 mi SW 6.9 mph - 0.00 in Snow Light Snow
6:53 PM 21.9 °F 12.5 °F 16.0 °F 78% 30.02 in 5.0 mi SW 8.1 mph - 0.00 in Snow Light Snow
7:53 PM 21.9 °F 15.7 °F 16.0 °F 78% 30.03 in 4.0 mi SW 4.6 mph - 0.00 in Snow Light Snow
8:29 PM 21.2 °F - 17.6 °F 86% 29.96 in 1.8 mi Calm Calm - 0.00 in Snow Light Snow
8:40 PM 21.2 °F - 17.6 °F 86% 29.96 in 2.5 mi Calm Calm - 0.00 in Snow Light Snow
8:53 PM 21.9 °F 14.5 °F 17.1 °F 82% 30.02 in 2.5 mi SW 5.8 mph - 0.00 in Snow Light Snow
9:08 PM 21.2 °F 13.6 °F 17.6 °F 86% 29.96 in 4.0 mi SW 5.8 mph - 0.00 in Snow Light Snow
9:53 PM 21.9 °F 14.5 °F 16.0 °F 78% 30.01 in 6.0 mi Variable 5.8 mph - 0.00 in Snow Light Snow
10:43 PM 21.2 °F 13.6 °F 15.8 °F 80% 29.96 in 8.0 mi West 5.8 mph - 0.00 in Snow Light Snow
10:53 PM 21.9 °F 12.5 °F 15.1 °F 75% 30.01 in 7.0 mi West 8.1 mph - 0.00 in Snow Light Snow
11:53 PM 21.9 °F 15.7 °F 16.0 °F 78% 30.00 in 4.0 mi West 4.6 mph - 0.00 in   Haze